Location: Blue Pit
(43.1414°N, 93.2208°W)
Time: 02:04:32
(UTC+00:00)

ATLAS 3B R/B - Pass Details

Date: 18 November 2025
Orbit: 935 x 1258 km, 63.8° (Epoch: 08 December)

Event Time Altitude Azimuth Distance (km) Brightness Sun altitude
Exits shadow 12:03:11 - 253° (WSW) 3,227 4.7 -12.2°
Reaches altitude 10° 12:03:30 10° 254° (WSW) 3,130 4.6 -12.1°
Maximum altitude 12:10:29 38° 321° (NW) 1,801 3.5 -10.9°
Drops below altitude 10° 12:17:45 10° 27° (NNE) 3,247 5.4 -9.7°
Sets 12:20:51 0° 36° (NE) 4,217 6.1 -9.1°
